Dewpoint
68 69 69 69 69 68 68 68 69 69 70 70 70 70 70 71 70 70 71 70 70 70 70 70 70 70 70 71 71 71 71 71 70 70 70 70 71 72 72 72 72 71 71 71 71 70 70 69 69 69 70 69 69 68 68 68 69 68 68 67 67 68 69 68 66 66 67 69 68 66 68 69 68 72 71 71 71 71 71 72 73 72 72 73 73
67 68 69 69 69 69 69 69 68 69 69 70 70 70 70 70 70 70 70 70 70 70 70 70 70 70 70 70 70 70 70 70 71 71 70 70 70 70 71 71 71 70 71 71 71 70 70 69 69 68 70 69 69 68 67 67 67 69 68 66 67 70 70 67 67 67 65 67 67 68 68 69 67 71 71 70 71 72 70 71 71 72 72 73 74
67 67 67 68 69 69 69 69 69 69 69 70 70 70 70 70 70 70 70 70 70 70 70 70 71 71 70 70 70 71 71 71 71 70 70 69 69 69 70 71 71 71 71 71 71 71 70 70 69 69 69 69 68 69 70 68 68 68 66 66 67 67 67 67 67 66 65 66 67 65 67 70 69 69 69 71 73 73 72 70 70 71 72 72 72
66 65 65 66 67 68 69 70 70 70 69 70 69 70 70 70 70 70 70 70 70 70 70 71 71 71 70 70 70 69 70 71 71 70 70 69 69 69 69 69 70 71 71 70 70 71 71 71 70 70 69 69 69 69 73 71 68 68 67 68 67 66 68 67 68 68 67 65 67 66 66 69 69 69 71 72 69 71 71 72 71 71 71 71 72
65 64 65 65 65 66 67 69 70 70 69 70 69 70 70 70 71 71 70 70 70 70 70 70 70 70 70 70 70 70 70 70 70 70 70 70 69 69 70 71 71 71 71 70 71 71 71 71 71 71 70 69 68 68 68 71 70 70 70 69 68 68 70 68 68 68 68 66 66 67 68 69 71 72 72 70 71 72 73 73 71 72 73 71 71
65 64 63 64 64 65 66 68 69 70 69 69 69 69 69 69 70 70 71 70 70 70 69 69 70 70 70 71 71 71 71 71 71 71 71 71 70 70 70 70 71 71 71 71 71 71 71 71 71 71 70 69 68 69 68 68 70 69 70 70 69 70 70 70 70 70 68 68 68 67 68 68 70 72 72 71 70 69 71 72 72 72 72 71 72
65 64 63 63 63 64 65 66 69 69 69 68 68 68 68 68 68 69 70 71 70 70 70 70 70 69 69 69 69 70 71 72 72 71 71 70 70 70 71 71 71 72 72 72 71 72 72 71 71 71 70 70 69 68 68 68 68 68 70 69 69 69 69 69 69 69 68 67 67 67 67 69 70 69 72 72 72 71 70 70 70 72 73 72 73
64 64 63 62 63 63 65 66 68 68 68 67 66 67 67 67 68 69 70 69 70 70 70 70 69 69 69 69 70 71 71 71 72 71 71 70 70 70 71 71 71 72 72 72 72 71 71 71 71 71 71 71 70 70 69 68 68 67 68 68 68 68 68 68 68 68 68 67 67 67 68 68 70 70 72 72 71 71 70 69 68 69 71 73 72
64 63 62 62 63 64 64 66 67 66 66 65 65 65 65 66 67 68 68 68 69 69 70 70 70 70 69 70 70 70 70 71 71 71 71 71 71 70 70 71 71 71 71 71 72 71 71 71 70 71 72 72 73 72 71 70 68 68 69 69 69 68 68 67 67 67 66 66 67 68 67 68 69 70 70 70 70 69 72 70 69 70 72 71 72
63 62 62 62 63 64 64 65 65 65 64 64 64 65 65 65 66 66 67 67 68 68 69 70 69 70 70 70 70 70 70 70 71 71 72 71 71 71 71 71 71 71 71 71 72 72 72 71 71 72 73 72 72 72 72 72 72 70 70 70 70 69 68 68 68 67 66 66 66 67 67 67 67 69 69 69 71 71 70 71 69 70 71 71 72
61 61 61 62 63 63 64 64 64 64 64 64 64 64 64 65 65 65 66 66 66 67 68 68 69 70 70 70 69 70 70 70 70 68 69 70 72 71 71 71 71 71 71 71 71 72 72 72 72 72 72 72 72 73 73 73 73 72 72 72 71 70 68 67 67 68 68 67 67 67 66 67 67 68 68 69 70 69 70 71 70 71 70 69 67
61 61 62 62 62 63 63 64 64 63 64 64 64 64 65 65 65 65 65 65 66 67 67 67 68 69 69 70 70 70 70 71 68 68 68 68 71 71 71 71 71 71 71 71 71 71 72 72 72 72 72 72 72 72 73 72 72 72 71 72 72 72 71 69 68 68 68 68 67 67 67 67 67 69 68 69 70 71 71 71 71 70 70 69 70
61 61 62 62 63 63 63 63 63 63 63 63 64 64 64 64 64 64 64 65 66 66 66 67 67 68 69 69 69 69 69 70 67 67 67 67 67 70 70 71 71 71 70 71 71 72 72 72 72 72 72 73 73 73 72 72 72 72 72 72 72 71 69 68 70 70 69 68 67 67 67 68 68 68 68 70 72 70 72 71 71 71 71 70 69
61 61 61 62 63 63 63 63 63 63 63 64 64 64 64 64 64 64 65 65 65 65 66 66 67 67 68 69 69 69 69 70 67 66 66 66 66 68 69 69 69 69 70 71 71 71 72 72 71 71 72 72 73 72 71 71 71 71 72 71 71 72 71 70 69 69 70 69 69 67 68 70 68 69 71 72 72 70 71 70 72 71 71 70 71
61 61 61 62 63 63 63 63 63 63 63 63 64 63 63 63 63 64 64 65 65 65 65 65 66 67 67 68 68 68 68 67 66 65 65 64 65 68 69 69 69 69 69 70 70 71 71 71 71 71 72 71 72 71 71 71 71 71 71 71 70 71 71 71 72 72 70 70 69 69 69 70 70 70 72 73 72 72 72 72 72 72 73 73 72
61 61 62 62 62 63 63 63 63 63 63 63 63 63 63 63 63 63 65 65 65 65 65 65 65 66 66 67 67 67 68 66 65 64 64 63 65 68 68 68 68 69 69 69 69 70 71 71 71 71 71 71 72 72 72 72 71 71 71 71 71 72 72 73 70 71 73 72 71 71 71 69 69 71 72 72 73 73 73 73 73 73 72 72 70
61 61 62 62 63 63 63 63 63 63 63 62 62 62 62 63 63 64 64 64 64 64 64 64 65 65 66 66 67 67 67 66 64 63 62 62 65 67 67 68 68 68 68 69 69 69 70 70 70 71 71 71 70 67 68 72 71 69 69 69 70 71 71 72 70 68 67 67 67 67 67 66 65 65 65 66 71 72 73 72 71 71 71 70 69
61 62 61 62 62 63 63 63 63 63 62 62 62 62 62 63 63 64 64 64 64 64 64 64 65 66 66 66 66 66 67 68 64 63 61 61 65 68 68 68 68 68 68 69 69 70 70 71 71 71 70 70 68 66 66 70 69 68 69 69 69 70 70 71 71 71 67 65 65 65 66 66 66 66 65 65 65 70 72 70 70 71 70 69 68
61 61 62 62 62 62 62 63 62 62 62 61 62 61 62 62 63 64 64 64 63 64 64 64 64 64 65 65 66 66 66 67 63 62 61 60 64 68 67 68 68 68 68 68 69 69 69 70 70 70 70 70 65 65 65 70 70 70 69 69 68 68 69 70 70 70 71 71 71 71 70 69 71 71 71 68 67 69 71 71 71 71 69 69 70
61 62 62 62 62 62 62 62 62 62 61 61 62 61 63 63 62 62 63 63 63 63 63 63 63 63 64 64 64 65 66 67 67 62 60 60 61 66 67 67 67 67 68 68 68 69 69 69 69 67 64 63 62 61 61 60 67 70 69 69 68 68 69 70 71 71 71 71 70 71 71 71 70 70 70 70 71 71 71 71 73 71 70 69 69
61 61 61 61 62 62 62 61 61 61 61 61 61 62 62 61 61 62 61 62 62 62 62 62 62 62 62 63 63 64 65 66 67 62 60 59 60 63 66 67 67 67 67 68 68 68 69 69 69 69 63 62 61 60 59 60 63 67 68 69 69 70 70 71 71 71 71 70 70 70 69 70 70 70 69 69 69 70 71 71 72 70 69 69 69
60 61 61 61 62 61 61 61 61 61 61 61 60 60 61 62 61 61 61 61 61 61 62 61 61 61 61 62 63 64 65 65 66 64 62 59 58 59 64 66 67 67 67 67 68 68 69 69 69 68 63 61 60 59 58 58 60 65 67 63 63 64 68 71 70 70 69 68 68 68 69 69 69 69 69 69 69 70 70 71 70 70 70 69 69
59 60 61 61 60 60 61 61 60 60 60 61 60 60 61 61 61 61 61 61 61 61 61 60 60 60 61 62 62 63 64 65 65 65 63 60 58 58 58 61 62 65 65 65 66 67 68 69 70 69 63 59 58 57 57 58 61 63 60 60 60 62 66 69 67 67 67 67 67 67 67 67 68 68 70 70 70 71 72 72 71 70 69 70 70
58 59 60 60 59 59 60 60 59 59 60 60 60 60 60 60 60 60 61 61 61 60 60 61 61 61 60 61 62 63 64 64 64 64 63 60 58 56 56 56 56 62 65 66 66 67 67 68 69 61 55 53 55 57 58 60 63 59 58 59 60 63 66 67 66 66 66 66 66 66 66 67 67 68 69 70 71 71 70 69 69 69 69 68 69
57 57 58 59 59 58 58 59 59 59 60 60 59 59 59 60 59 60 60 60 60 60 60 60 60 60 60 61 61 62 63 64 64 64 63 63 59 58 57 57 57 56 62 65 66 67 64 60 57 56 56 55 55 56 58 60 57 58 58 58 65 65 66 66 66 65 65 65 66 66 66 66 67 68 71 71 70 69 69 68 69 69 69 69 69
56 56 57 58 57 57 57 58 58 59 59 60 59 59 59 59 59 59 59 59 59 59 60 60 60 61 60 61 61 61 62 63 63 63 63 64 63 61 59 60 64 64 66 65 64 62 59 58 57 56 58 58 63 64 65 66 63 60 59 61 64 65 66 66 66 65 65 66 67 66 66 67 68 70 70 69 68 68 68 68 67 67 68 68 68
56 56 56 56 56 56 56 57 58 58 58 59 59 59 59 59 58 59 59 58 58 58 59 59 59 59 60 60 60 61 61 61 62 62 63 64 64 64 64 64 63 63 64 65 65 65 65 65 65 62 61 62 63 64 64 65 67 67 65 65 65 64 65 66 66 66 67 67 67 67 68 69 70 68 67 67 67 68 68 68 67 67 67 67 67
54 54 54 54 55 56 56 58 57 57 57 58 57 58 58 58 58 58 58 58 57 57 57 56 55 55 56 57 58 59 59 60 61 62 61 62 61 61 61 62 62 62 62 63 63 64 66 66 65 66 66 65 65 65 65 66 66 67 67 66 66 65 66 66 66 67 67 68 68 68 68 67 67 67 67 67 67 67 67 67 67 67 67 67 66
54 54 54 54 55 56 56 56 55 55 56 57 57 57 58 57 58 58 59 61 60 56 54 53 53 52 53 53 54 54 55 55 57 55 56 52 54 54 56 58 59 59 60 57 59 61 63 65 65 65 65 64 65 65 65 66 66 67 67 67 66 66 65 65 65 65 66 66 66 66 66 66 66 66 66 66 66 66 67 67 67 67 67 67 66
53 53 54 54 55 55 55 54 54 55 55 56 56 56 57 55 55 58 57 58 56 50 50 51 51 51 52 52 53 53 53 53 52 48 46 46 46 46 48 47 46 52 55 53 56 58 61 62 63 64 64 64 64 64 64 65 66 66 67 66 67 66 65 65 65 65 65 65 66 65 65 66 65 66 66 66 66 67 67 66 67 67 67 66 66
52 52 53 53 55 55 54 53 53 54 55 55 55 54 54 55 51 51 53 55 51 46 45 45 46 48 51 50 51 51 50 48 46 45 44 44 44 43 43 42 42 43 45 50 57 60 62 62 63 64 64 64 64 64 65 66 66 66 66 66 67 66 65 65 65 65 65 65 65 65 65 65 65 66 66 66 66 67 68 67 68 67 67 66 66
52 52 52 54 56 55 54 53 53 53 54 55 54 53 53 53 54 52 50 49 49 47 44 44 43 44 46 47 50 49 49 46 45 45 45 44 44 43 42 41 41 41 43 46 55 59 60 61 63 63 64 63 64 65 65 65 66 66 67 67 66 66 66 65 65 66 65 65 65 65 66 66 66 66 66 66 66 67 67 67 66 66 66 66 66
51 51 51 54 55 54 52 52 52 52 53 53 53 52 52 54 52 52 52 48 48 47 46 44 44 43 44 43 44 43 44 44 45 45 44 44 43 42 42 41 41 40 43 51 56 58 59 60 61 62 63 63 64 64 64 66 66 66 67 66 66 66 66 67 67 67 66 66 66 66 66 66 66 66 66 67 66 66 66 66 67 66 66 66 66
51 51 51 53 54 53 51 52 51 52 53 53 52 51 52 51 51 52 49 50 51 49 47 45 44 43 44 43 44 43 44 44 44 44 44 45 44 44 41 46 43 42 46 55 57 58 59 59 60 61 61 63 64 65 65 65 66 66 66 66 66 66 66 67 67 66 66 66 66 67 67 67 67 67 66 66 66 66 66 66 66 66 66 66 66
51 52 51 52 53 51 50 51 51 52 51 51 50 50 51 51 51 51 49 49 49 48 47 48 46 43 45 45 44 43 44 44 44 44 44 45 46 46 48 56 56 56 53 54 57 57 58 59 60 60 60 60 61 62 63 64 65 65 65 65 66 66 66 66 65 66 66 66 66 66 66 66 66 66 66 66 66 66 66 66 66 66 66 66 67
51 50 49 50 51 50 50 51 51 51 51 50 49 50 51 50 49 50 49 49 50 48 48 47 46 46 45 43 44 43 44 43 43 44 44 45 46 48 52 51 51 52 53 53 54 55 56 56 56 57 58 59 61 62 62 63 63 64 65 66 66 66 66 66 66 66 66 66 65 65 65 66 66 66 66 66 66 66 66 66 66 66 66 66 66
50 49 49 50 51 50 50 51 50 50 50 50 48 49 49 49 49 49 49 48 49 48 46 46 45 44 45 47 48 45 45 44 43 44 43 44 46 52 51 50 49 48 48 48 49 50 49 50 51 51 51 52 52 52 53 54 56 59 62 65 66 66 66 66 67 66 66 66 66 65 65 65 65 65 65 64 65 65 65 66 66 66 66 66 65
50 48 49 50 51 51 51 51 48 49 48 48 47 49 48 48 48 49 50 49 48 48 46 46 47 43 42 43 48 48 48 46 45 45 45 45 47 49 50 51 50 48 48 47 47 46 46 47 48 48 48 49 49 49 49 50 52 53 54 56 58 58 57 59 60 60 62 64 65 65 65 65 65 65 64 64 64 64 64 64 64 64 64 64 65
49 48 49 49 49 49 49 49 48 47 47 47 46 47 48 48 47 48 49 48 48 47 48 46 46 44 44 44 44 47 46 45 45 45 47 47 48 48 48 48 48 49 48 47 46 46 44 44 45 47 48 48 48 48 48 48 48 49 50 51 52 52 51 50 50 51 52 53 55 56 59 62 64 65 65 65 64 64 64 64 64 64 64 64 64
48 46 48 48 48 47 47 47 46 46 47 45 44 46 46 46 46 46 48 49 47 47 47 47 47 46 46 45 46 46 45 44 45 46 46 46 46 47 46 47 46 47 47 45 45 44 43 43 44 45 45 46 46 46 46 46 45 47 48 48 47 47 47 46 46 46 47 48 50 51 53 54 56 58 61 63 64 64 64 63 64 64 64 64 64
48 47 49 47 46 46 46 46 45 45 45 45 44 45 44 45 46 46 46 47 47 47 47 47 48 48 47 46 43 44 46 45 45 45 46 46 46 45 45 45 46 46 46 48 46 46 44 44 44 44 44 44 44 44 45 45 44 43 44 45 44 44 42 42 42 42 42 43 44 47 49 50 52 54 55 56 57 59 60 63 64 64 63 63 64
47 46 46 46 45 46 45 45 44 44 44 45 43 44 44 44 44 44 45 46 47 47 46 46 47 48 47 45 42 41 45 46 46 45 45 45 44 45 46 46 46 45 46 46 47 45 45 43 43 43 43 42 42 42 42 42 42 41 41 42 42 41 41 40 40 40 40 40 41 43 45 46 48 49 49 52 54 55 57 59 60 62 64 64 64
47 46 45 46 44 44 44 43 43 42 43 43 43 45 44 43 43 43 43 44 45 45 45 45 45 47 47 45 46 44 45 45 45 45 44 45 45 45 45 45 45 46 45 46 46 47 46 45 44 43 43 43 43 43 42 42 42 42 41 41 41 41 39 40 39 39 40 40 41 43 44 45 47 47 48 50 51 52 54 55 57 58 58 59 61
47 44 44 44 44 44 44 42 42 43 43 44 44 44 44 43 43 43 42 41 44 43 42 42 42 44 46 47 46 45 43 43 43 44 44 44 45 44 45 45 45 45 45 45 46 46 46 45 45 44 44 43 43 43 43 43 42 42 40 39 41 42 39 39 38 39 39 39 40 41 41 43 45 46 47 50 51 51 52 53 53 54 55 56 58
47 43 43 44 43 44 44 45 43 44 45 45 44 44 45 44 44 43 42 41 42 42 40 40 40 41 43 45 45 43 42 42 43 44 44 43 44 44 45 45 45 45 45 45 45 45 45 45 45 45 42 43 43 43 43 42 43 42 41 40 39 39 38 38 39 39 39 39 39 40 40 40 42 44 45 48 50 49 50 51 52 53 54 54 55
46 44 43 43 44 45 45 44 46 45 44 44 44 43 43 44 44 43 42 41 41 41 40 40 39 40 41 41 41 42 40 40 41 41 42 42 42 43 44 45 46 45 45 46 45 45 45 45 44 44 44 42 42 42 43 42 42 42 42 41 41 40 40 39 39 39 39 39 38 39 40 41 41 43 47 47 47 48 49 50 51 52 53 54 54
47 45 43 44 43 44 44 45 45 44 44 44 44 44 44 44 44 44 45 42 41 40 39 39 39 39 39 39 39 39 39 39 39 40 40 40 41 42 42 43 44 43 44 45 44 45 45 45 45 44 44 43 42 42 42 42 42 42 41 41 41 41 40 39 39 39 39 39 39 39 39 40 42 43 44 45 46 48 49 49 50 51 52 53 54
46 45 44 44 44 44 44 44 45 45 44 45 45 44 44 44 44 45 44 41 40 39 38 39 39 39 39 38 39 39 39 39 39 39 39 39 39 40 40 41 42 41 41 41 40 40 40 40 41 41 40 41 40 40 41 42 41 41 41 41 40 39 38 36 37 37 37 37 38 39 39 40 41 42 43 44 45 47 48 49 50 51 52 53 53
45 45 44 44 43 44 45 45 46 44 44 44 44 43 45 44 44 44 45 42 39 39 37 38 38 39 39 38 39 39 39 40 38 38 38 38 39 39 39 40 41 39 38 39 38 39 38 38 39 39 39 40 40 40 40 41 40 41 41 40 39 38 37 36 36 36 36 37 39 40 41 41 42 43 44 45 46 47 49 50 50 52 53 53 54
46 45 44 44 44 45 46 46 45 45 44 44 43 43 44 44 44 44 44 43 39 38 38 38 39 39 38 38 39 39 40 39 39 38 39 39 38 39 39 39 40 40 38 39 39 39 39 39 39 39 39 39 38 38 39 40 40 40 39 39 39 38 36 35 35 35 35 37 39 40 41 42 44 45 46 47 48 49 50 51 51 52 52 52 53
46 45 45 45 45 46 46 46 45 45 44 44 43 42 43 43 44 44 44 44 42 38 39 37 38 39 39 38 40 39 39 39 39 39 38 38 38 39 39 39 40 40 39 39 39 39 39 39 38 39 39 39 39 38 38 39 39 39 39 38 37 36 34 33 33 33 34 35 39 42 45 45 45 46 48 48 48 48 50 51 51 51 51 52 53